Torna al catalogo

FENGYUN 1C DEB

AttivoPO
NORAD 32372·DEBRIS·🇨🇳 China

Lanciato May 10, 1999 da Taiyuan Satellite Launch Center

Loading…

Prossimi Passaggi (prossime 24 ore)

TLE

In scadenzaSource: Space-Track

Epoca: Sep 7, 2026, 17:15 UTC

1 32372U 99025CZR 26250.71941517  .00000682  00000-0  75787-3 0  9995
2 32372  97.3077  61.5035 0455895  60.2248 304.3425 13.36115432637310

Traccia FENGYUN 1C DEB in tempo reale con AllMySat

Download on the App Store